When you browse on this site, cookies collect data to enhance your experience and personalize the content and advertising you see.
Visit our Privacy Policy to learn more. By continuing to use the site, you agree to this use of cookies and data.
  • In Czech Republic
  • List of Countries
  • For 7 days
  • Water Temperature
  • Satellite Maps
  • Weather Map
  • Weather Widgets
  • user-avatar
    Login

    Hourly Weather Alzira

    Today, 19 December, Wednesday

    Time Temperature Precipitation Wind Pressure Humidity
    00:00 +12°C° 0 mm 4 mps 763 mmHg 62%
    01:00 +12°C° 0 mm 4 mps 763 mmHg 65%
    02:00 +13°C° 0 mm 4 mps 763 mmHg 67%
    03:00 +13°C° 0 mm 4 mps 763 mmHg 70%
    04:00 +13°C° 0 mm 4 mps 763 mmHg 72%
    05:00 +13°C° 0 mm 4 mps 763 mmHg 73%
    06:00 +13°C° 0 mm 4 mps 763 mmHg 75%
    07:00 +14°C° 0 mm 5 mps 763 mmHg 74%
    08:00 +14°C° 0 mm 5 mps 763 mmHg 74%
    09:00 +15°C° 0 mm 6 mps 763 mmHg 73%
    10:00 +16°C° 0 mm 6 mps 763 mmHg 66%
    11:00 +17°C° 0 mm 6 mps 763 mmHg 58%
    12:00 +19°C° 0 mm 6 mps 763 mmHg 50%
    13:00 +17°C° 0 mm 6 mps 763 mmHg 46%
    14:00 +17°C° 0 mm 6 mps 763 mmHg 41%
    15:00 +17°C° 0 mm 6 mps 763 mmHg 37%
    16:00 +16°C° 0 mm 6 mps 763 mmHg 43%
    17:00 +14°C° 0 mm 6 mps 763 mmHg 49%
    18:00 +13°C° 0 mm 6 mps 764 mmHg 55%
    19:00 +13°C° 0 mm 6 mps 764 mmHg 57%
    20:00 +11°C° 0 mm 6 mps 765 mmHg 60%
    21:00 +12°C° 0 mm 5 mps 765 mmHg 62%
    22:00 +12°C° 0 mm 5 mps 765 mmHg 66%
    23:00 +10°C° 0 mm 5 mps 765 mmHg 69%

    Tomorrow, 20 December, Thursday

    Time Temperature Precipitation Wind Pressure Humidity
    00:00 +10°C° 0 mm 5 mps 765 mmHg 72%
    01:00 +10°C° 0 mm 5 mps 766 mmHg 73%
    02:00 +10°C° 0 mm 5 mps 766 mmHg 74%
    03:00 +10°C° 0 mm 5 mps 766 mmHg 75%
    04:00 +11°C° 0 mm 4 mps 766 mmHg 76%
    05:00 +11°C° 0 mm 4 mps 766 mmHg 77%
    06:00 +11°C° 0 mm 4 mps 766 mmHg 78%
    07:00 +11°C° 0 mm 4 mps 766 mmHg 77%
    08:00 +12°C° 0 mm 4 mps 767 mmHg 76%
    09:00 +12°C° 0 mm 4 mps 767 mmHg 75%
    10:00 +13°C° 0 mm 4 mps 767 mmHg 68%
    11:00 +15°C° 0 mm 4 mps 767 mmHg 61%
    12:00 +17°C° 0 mm 3 mps 767 mmHg 54%
    13:00 +17°C° 0 mm 3 mps 767 mmHg 53%
    14:00 +18°C° 0 mm 3 mps 767 mmHg 52%
    15:00 +18°C° 0 mm 3 mps 766 mmHg 51%
    16:00 +16°C° 0 mm 3 mps 767 mmHg 57%
    17:00 +14°C° 0 mm 3 mps 767 mmHg 63%
    18:00 +12°C° 0 mm 3 mps 768 mmHg 69%
    19:00 +12°C° 0 mm 3 mps 768 mmHg 72%
    20:00 +12°C° 0 mm 2 mps 769 mmHg 75%
    21:00 +12°C° 0 mm 2 mps 769 mmHg 78%
    22:00 +10°C° 0 mm 2 mps 769 mmHg 78%
    23:00 +10°C° 0 mm 2 mps 769 mmHg 79%

    Day after tomorrow, 21 December, Friday

    Time Temperature Precipitation Wind Pressure Humidity
    00:00 +10°C° 0 mm 2 mps 770 mmHg 79%
    01:00 +10°C° 0 mm 2 mps 769 mmHg 80%
    02:00 +9°C° 0 mm 2 mps 769 mmHg 80%
    03:00 +9°C° 0 mm 2 mps 769 mmHg 81%
    04:00 +9°C° 0 mm 2 mps 769 mmHg 81%
    05:00 +9°C° 0 mm 2 mps 770 mmHg 81%
    06:00 +9°C° 0 mm 2 mps 770 mmHg 81%
    07:00 +10°C° 0 mm 3 mps 770 mmHg 77%
    08:00 +11°C° 0 mm 3 mps 770 mmHg 72%
    09:00 +12°C° 0 mm 3 mps 770 mmHg 68%
    10:00 +14°C° 0 mm 3 mps 770 mmHg 62%
    11:00 +17°C° 0 mm 4 mps 770 mmHg 55%
    12:00 +18°C° 0 mm 4 mps 770 mmHg 49%
    13:00 +19°C° 0 mm 4 mps 769 mmHg 48%
    14:00 +19°C° 0 mm 4 mps 769 mmHg 47%
    15:00 +19°C° 0 mm 4 mps 768 mmHg 46%
    16:00 +18°C° 0 mm 4 mps 769 mmHg 52%
    17:00 +15°C° 0 mm 4 mps 769 mmHg 57%
    18:00 +13°C° 0 mm 4 mps 769 mmHg 63%
    19:00 +13°C° 0 mm 4 mps 769 mmHg 65%
    20:00 +13°C° 0 mm 4 mps 769 mmHg 66%
    21:00 +12°C° 0 mm 4 mps 770 mmHg 68%
    22:00 +12°C° 0 mm 4 mps 769 mmHg 69%
    23:00 +12°C° 0 mm 4 mps 769 mmHg 70%

    22 December, Saturday

    Time Temperature Precipitation Wind Pressure Humidity
    00:00 +12°C° 0 mm 3 mps 769 mmHg 71%
    01:00 +12°C° 0 mm 3 mps 769 mmHg 72%
    02:00 +11°C° 0 mm 3 mps 769 mmHg 72%
    03:00 +11°C° 0 mm 3 mps 768 mmHg 72%
    04:00 +11°C° 0 mm 3 mps 768 mmHg 73%
    05:00 +11°C° 0 mm 3 mps 768 mmHg 73%
    06:00 +11°C° 0 mm 3 mps 768 mmHg 73%
    07:00 +12°C° 0 mm 3 mps 768 mmHg 70%
    08:00 +14°C° 0 mm 2 mps 769 mmHg 66%
    09:00 +15°C° 0 mm 2 mps 769 mmHg 62%
    10:00 +17°C° 0 mm 2 mps 769 mmHg 56%
    11:00 +19°C° 0 mm 2 mps 768 mmHg 50%
    12:00 +22°C° 0 mm 1 mps 768 mmHg 44%
    13:00 +22°C° 0 mm 1 mps 768 mmHg 43%
    14:00 +23°C° 0 mm 2 mps 767 mmHg 42%
    15:00 +23°C° 0 mm 2 mps 767 mmHg 41%
    16:00 +21°C° 0 mm 1 mps 767 mmHg 50%
    17:00 +18°C° 0 mm 1 mps 767 mmHg 59%
    18:00 +15°C° 0 mm 1 mps 767 mmHg 69%
    19:00 +14°C° 0 mm 1 mps 768 mmHg 70%
    20:00 +14°C° 0 mm 1 mps 768 mmHg 71%
    21:00 +14°C° 0 mm 1 mps 768 mmHg 72%
    22:00 +13°C° 0 mm 1 mps 768 mmHg 72%
    23:00 +13°C° 0 mm 1 mps 768 mmHg 72%

    23 December, Sunday

    Time Temperature Precipitation Wind Pressure Humidity
    00:00 +13°C° 0 mm 1 mps 767 mmHg 72%
    01:00 +13°C° 0 mm 1 mps 767 mmHg 72%
    02:00 +13°C° 0 mm 1 mps 767 mmHg 72%
    03:00 +13°C° 0 mm 1 mps 767 mmHg 71%
    04:00 +13°C° 0 mm 1 mps 767 mmHg 71%
    05:00 +12°C° 0 mm 1 mps 767 mmHg 70%
    06:00 +12°C° 0 mm 1 mps 767 mmHg 70%
    07:00 +14°C° 0 mm 1 mps 767 mmHg 65%
    08:00 +15°C° 0 mm 1 mps 768 mmHg 60%
    09:00 +18°C° 0 mm 1 mps 768 mmHg 55%
    10:00 +19°C° 0 mm 1 mps 768 mmHg 48%
    11:00 +21°C° 0 mm 1 mps 767 mmHg 41%
    12:00 +23°C° 0 mm 1 mps 767 mmHg 34%
    13:00 +23°C° 0 mm 1 mps 767 mmHg 33%
    14:00 +23°C° 0 mm 2 mps 766 mmHg 32%
    15:00 +23°C° 0 mm 2 mps 766 mmHg 31%
    16:00 +20°C° 0 mm 2 mps 766 mmHg 38%
    17:00 +18°C° 0 mm 1 mps 766 mmHg 45%
    18:00 +14°C° 0 mm 1 mps 767 mmHg 53%
    19:00 +14°C° 0 mm 1 mps 767 mmHg 52%
    20:00 +14°C° 0 mm 1 mps 767 mmHg 52%
    21:00 +13°C° 0 mm 1 mps 767 mmHg 51%
    22:00 +13°C° 0 mm 1 mps 767 mmHg 51%
    23:00 +13°C° 0 mm 1 mps 767 mmHg 51%

    24 December, Monday

    Time Temperature Precipitation Wind Pressure Humidity
    00:00 +13°C° 0 mm 1 mps 767 mmHg 51%
    01:00 +13°C° 0 mm 1 mps 767 mmHg 52%
    02:00 +12°C° 0 mm 1 mps 766 mmHg 54%
    03:00 +12°C° 0 mm 1 mps 766 mmHg 55%
    04:00 +12°C° 0 mm 1 mps 766 mmHg 55%
    05:00 +12°C° 0 mm 1 mps 766 mmHg 55%
    06:00 +11°C° 0 mm 1 mps 766 mmHg 55%
    07:00 +13°C° 0 mm 1 mps 766 mmHg 52%
    08:00 +14°C° 0 mm 1 mps 766 mmHg 48%
    09:00 +16°C° 0 mm 1 mps 767 mmHg 44%
    10:00 +19°C° 0 mm 1 mps 766 mmHg 38%
    11:00 +20°C° 0 mm 1 mps 766 mmHg 33%
    12:00 +22°C° 0 mm 1 mps 766 mmHg 27%
    13:00 +22°C° 0 mm 1 mps 765 mmHg 27%
    14:00 +22°C° 0 mm 1 mps 765 mmHg 27%
    15:00 +23°C° 0 mm 1 mps 765 mmHg 27%
    16:00 +20°C° 0 mm 1 mps 765 mmHg 35%
    17:00 +16°C° 0 mm 1 mps 765 mmHg 43%
    18:00 +14°C° 0 mm 1 mps 765 mmHg 50%
    19:00 +14°C° 0 mm 1 mps 765 mmHg 51%
    20:00 +13°C° 0 mm 1 mps 765 mmHg 51%
    21:00 +13°C° 0 mm 1 mps 765 mmHg 52%
    22:00 +13°C° 0 mm 1 mps 765 mmHg 51%
    23:00 +13°C° 0 mm 1 mps 765 mmHg 50%
    Show more